TimeCDT,TemperatureF,Dew PointF,Humidity,Sea Level PressureIn,VisibilityMPH,Wind Direction,Wind SpeedMPH,Gust SpeedMPH,PrecipitationIn,Events,Conditions,WindDirDegrees,DateUTC
12:55 AM,53.1,34.0,48,29.82,10.0,SW,10.4,-,N/A,,Clear,220,2013-10-20 05:55:00
1:55 AM,52.0,35.1,53,29.81,10.0,SW,12.7,-,N/A,,Clear,220,2013-10-20 06:55:00
2:55 AM,50.0,34.0,54,29.80,10.0,SW,10.4,-,N/A,,Clear,230,2013-10-20 07:55:00
3:55 AM,50.0,34.0,54,29.78,10.0,SW,10.4,-,N/A,,Clear,230,2013-10-20 08:55:00
4:55 AM,48.9,34.0,56,29.77,10.0,SW,10.4,-,N/A,,Clear,220,2013-10-20 09:55:00
5:55 AM,48.0,34.0,58,29.78,10.0,SW,10.4,-,N/A,,Clear,220,2013-10-20 10:55:00
6:55 AM,48.0,34.0,58,29.78,10.0,SW,9.2,-,N/A,,Clear,230,2013-10-20 11:55:00
7:55 AM,46.0,35.1,66,29.79,10.0,West,5.8,-,N/A,,Clear,260,2013-10-20 12:55:00
8:55 AM,46.0,35.1,66,29.81,10.0,West,10.4,-,N/A,,Clear,260,2013-10-20 13:55:00
9:55 AM,51.1,36.0,56,29.81,10.0,SW,9.2,-,N/A,,Clear,230,2013-10-20 14:55:00
10:55 AM,55.9,37.0,49,29.83,10.0,West,10.4,-,N/A,,Clear,270,2013-10-20 15:55:00
11:55 AM,57.9,37.9,47,29.84,10.0,NNW,5.8,-,N/A,,Mostly Cloudy,330,2013-10-20 16:55:00
12:55 PM,60.1,39.9,47,29.83,10.0,North,4.6,-,N/A,,Scattered Clouds,350,2013-10-20 17:55:00
1:55 PM,66.0,39.9,38,29.82,10.0,Variable,5.8,-,N/A,,Clear,0,2013-10-20 18:55:00
2:55 PM,68.0,39.9,36,29.81,10.0,North,10.4,-,N/A,,Clear,350,2013-10-20 19:55:00
3:55 PM,66.0,37.9,36,29.82,10.0,NNW,9.2,-,N/A,,Partly Cloudy,330,2013-10-20 20:55:00
4:55 PM,64.0,37.9,38,29.84,10.0,North,11.5,-,N/A,,Mostly Cloudy,350,2013-10-20 21:55:00
5:55 PM,62.1,39.0,43,29.86,10.0,North,9.2,-,N/A,,Overcast,350,2013-10-20 22:55:00
6:55 PM,60.1,39.0,46,29.88,10.0,North,6.9,-,N/A,,Partly Cloudy,360,2013-10-20 23:55:00
7:55 PM,57.0,39.9,53,29.91,10.0,NNW,5.8,-,N/A,,Scattered Clouds,330,2013-10-21 00:55:00
8:55 PM,55.9,37.9,51,29.96,10.0,North,10.4,-,N/A,,Clear,350,2013-10-21 01:55:00
9:55 PM,53.1,37.9,57,29.98,10.0,North,8.1,-,N/A,,Clear,350,2013-10-21 02:55:00
10:55 PM,50.0,37.0,61,30.01,10.0,North,11.5,-,N/A,,Clear,10,2013-10-21 03:55:00
11:55 PM,48.9,37.0,64,30.04,10.0,North,8.1,-,N/A,,Overcast,360,2013-10-21 04:55:00